Andri Sucipto

Chefscout - Bali United
24 Sep 2028
Sonntag
Verarbeitung

Persönlichkeit

Anpassungsfähigkeit (16) Ehrgeiz (10) Kontroverse (16) Loyalität (2) Druck (13) Professionalität (7) Fairness (10) Temperament (14)

Profil

Trainerstil Demokratisch
Lizenz Kontinentale Pro
Entschlossenheit 6
Menschenführung 3
Motivation 4
Disziplin 6
Arbeitszufriedenheit
71%
Ermüdung
0%
Rolle Chefscout
Gehalt 20.7K p/W
Vertrag 14.03.2029

Leistung

Verhalten Gut
Trainingseffektivität
23%
Spielerentwicklung
15%
Verletzungsprävention
30%
Taktische Umsetzung
25%

Letzte Ereignisse

Nahm an einer Scouting-Besprechung teil jetzt
Spieler begutachtet jetzt
Spieler begutachtet jetzt
Spieler begutachtet jetzt
Spieler begutachtet 7T her
Spieler begutachtet 7T her
Spieler begutachtet 7T her
Spieler begutachtet 7T her

Aktuell beobachtet

174
Spieler Verein Status Fähigkeit Vertrauen Beobachtet Zuletzt beobachtet Letzte Stimme
Juan Mendoza Güemes Aktiv 94 / 109 40% 2 23.09.2028 -
Vico Maluku Utara United Aktiv 109 / 101 40% 1 23.09.2028 -
Lisandro Cabrera Maipú Aktiv 115 / 111 40% 4 22.09.2028 -
José Barreto Quilmes Aktiv 122 / 110 40% 2 22.09.2028 -
Agustín Gallo Tristán Suárez Aktiv 102 / 115 40% 5 21.09.2028 -
Tomás Jerez San Miguel Aktiv 101 / 105 40% 1 21.09.2028 -
Sudi Abdallah Persijap Aktiv 88 / 95 40% 4 20.09.2028 -
Sebastián Cocimano Nueva Chicago Aktiv 117 / 116 40% 3 20.09.2028 -
Milan Ristovski Bhayangkara Presisi Aktiv 110 / 102 40% 5 19.09.2028 -
Mihailo Perović Persebaya Aktiv 107 / 106 40% 1 19.09.2028 -
Owen Falconis Cerrito Aktiv 104 / 101 40% 2 17.09.2028 -
Julián Brea Cobresal Aktiv 106 / 102 40% 1 17.09.2028 -
Alexis Gómez Persijap Aktiv 108 / 98 40% 3 16.09.2028 -
Fortune Bassey Bunyodkor Aktiv 109 / 96 40% 1 16.09.2028 -
Luca Franco Arsenal Aktiv 119 / 105 40% 8 14.09.2028 -
Jerónimo Porto Lapegüe San Telmo Aktiv 103 / 103 40% 5 14.09.2028 -
Gustavo França Arema Aktiv 101 / 107 40% 2 13.09.2028 -
Rubin Hebaj Tobol Aktiv 111 / 111 40% 1 13.09.2028 -
Juan Peinipil Madryn Aktiv 108 / 109 40% 1 12.09.2028 -
Clemente Montes Santiago Wanderers Aktiv 116 / 117 40% 1 11.09.2028 -
Daniel Barrea Godoy Cruz Aktiv 130 / 122 40% 4 09.09.2028 -
Elías Ayala Madryn Aktiv 105 / 111 40% 1 09.09.2028 -
Tomás Blanco Estudiantes Aktiv 112 / 106 40% 1 08.09.2028 -
Genaro Rossi San Martín SJ Aktiv 108 / 111 40% 1 06.09.2028 -
Camilo Machado Madryn Aktiv 109 / 103 40% 3 05.09.2028 -
Riquelme Madura United Aktiv 107 / 109 40% 1 05.09.2028 -
Andrew Jung Persib Aktiv 117 / 102 40% 3 03.09.2028 -
Juan David Rueda Alianza Petrolera Aktiv 112 / 104 40% 3 31.08.2028 -
Alexey Antilevskiy Slavia Mozyr Aktiv 85 / 95 40% 1 31.08.2028 -
Dejan Tumbas Persis Aktiv 95 / 101 40% 1 29.08.2028 -
Luciano Riveros San Martín SJ Aktiv 104 / 115 40% 1 27.08.2028 -
Nahuel Gómez Oriental Aktiv 97 / 94 40% 1 27.08.2028 -
Bruno Miño Almirante Brown Aktiv 114 / 99 40% 4 26.08.2028 -
Prince Ukachukwu Irtysh Aktiv 99 / 111 40% 2 23.08.2028 -
Augusto Berrondo Tristán Suárez Aktiv 106 / 114 40% 2 22.08.2028 -
Mauro Valiente Estudiantes Aktiv 115 / 116 40% 2 22.08.2028 -
Ayman Sellouf Ordabasy Aktiv 116 / 97 40% 1 21.08.2028 -
Gustavo Viera Cerro Largo Aktiv 99 / 105 40% 3 20.08.2028 -
Raffaele Sibilio Novara Aktiv 89 / 94 40% 1 20.08.2028 -
Lorenzo Barrera Agropecuario Argentino Aktiv 107 / 105 40% 1 17.08.2028 -
Maxime Leverbe Vicenza Aktiv 123 / 114 40% 1 17.08.2028 -
Andrea Boffelli Lumezzane Aktiv 123 / 113 40% 1 17.08.2028 -
Manuele Malotti Livorno Aktiv 112 / 109 40% 5 15.08.2028 -
Santiago Sala Güemes Aktiv 126 / 119 40% 3 15.08.2028 -
Julián Illanes Carrarese Aktiv 121 / 135 40% 1 15.08.2028 -
Franco Camargo Gimnasia y Esgrima Aktiv 113 / 110 40% 1 15.08.2028 -
Giuseppe D'Agostino Giugliano Aktiv 91 / 115 40% 1 13.08.2028 -
Angelo Guida Siracusa Aktiv 96 / 109 40% 5 12.08.2028 -
Mattia Iori Lumezzane Aktiv 104 / 119 40% 4 09.08.2028 -
Miguel Falé Pacos de Ferreira Aktiv 126 / 117 40% 2 09.08.2028 -
Luca Coccolo Pro Vercelli Aktiv 94 / 111 40% 1 09.08.2028 -
Nikola Tavares Barnet Aktiv 114 / 103 40% 1 09.08.2028 -
Andrea Mattioli Arzignano Aktiv 106 / 99 40% 2 07.08.2028 -
Facundo Krüger Temperley Aktiv 111 / 111 40% 1 07.08.2028 -
Alejo Tabares All Boys Aktiv 127 / 116 40% 1 07.08.2028 -
Tyler Walker Barrow AFC Aktiv 98 / 97 40% 2 05.08.2028 -
Gianluca Pugliese Güemes Aktiv 110 / 116 40% 1 05.08.2028 -
Louis Zecevic-John Colchester United Aktiv 105 / 119 40% 3 04.08.2028 -
Nicolás Medina Atlanta Aktiv 97 / 111 40% 1 04.08.2028 -
Giacomo Zecca Torres Aktiv 127 / 111 40% 3 03.08.2028 -
Marcelo Orellana Vis Pesaro Aktiv 114 / 120 40% 1 02.08.2028 -
Enzo González Defensores Aktiv 109 / 102 40% 1 31.07.2028 -
Marcus Dinanga Bromley Aktiv 83 / 96 40% 2 30.07.2028 -
Seb Palmer-Houlden Gillingham Aktiv 109 / 96 40% 1 29.07.2028 -
King Udoh Pro Patria Aktiv 112 / 95 40% 1 29.07.2028 -
Kimarni Smith Newport County Aktiv 85 / 108 40% 4 27.07.2028 -
Kelsey Mooney Accrington Stanley Aktiv 107 / 97 40% 1 27.07.2028 -
Mathys Jean Marie Vis Pesaro Aktiv 104 / 111 40% 4 26.07.2028 -
Alan Cisnero Exeter City Aktiv 122 / 102 40% 2 26.07.2028 -
Nermin Haljeta PSIM Aktiv 96 / 99 55% 3 25.07.2028 -
Lucas Pedraza Defensores Unidos Aktiv 95 / 101 40% 1 22.07.2028 -
Agustín Dávila Cerro Largo Aktiv 101 / 97 40% 1 20.07.2028 -
Daniel Udoh Salford City Aktiv 114 / 112 40% 1 19.07.2028 -
Eetu Vertainen Triestina Aktiv 106 / 110 40% 1 16.07.2028 -
Sheriddin Boboev PSM Aktiv 93 / 103 40% 2 15.07.2028 -
Giuseppe Coppola Picerno Aktiv 111 / 112 40% 2 15.07.2028 -
Alessandro Bolzan Arzignano Aktiv 86 / 93 40% 4 14.07.2028 -
Sebastián de Marco Fenix Aktiv 101 / 104 40% 2 11.07.2028 -
Shilow Tracey Walsall Aktiv 103 / 108 40% 3 11.07.2028 -
Alessandro Ghillani Lumezzane Aktiv 122 / 110 40% 6 07.07.2028 -
Thomas Alberti Cavese Aktiv 99 / 116 40% 8 05.07.2028 -
Luca Nocerino Foggia Aktiv 105 / 115 40% 1 02.07.2028 -
George Lloyd Shrewsbury Town Aktiv 109 / 95 40% 2 30.06.2028 -
Matty Stevens AFC Wimbledon Aktiv 98 / 113 40% 1 30.06.2028 -
Gianluca D'Auria Potenza Aktiv 115 / 114 40% 5 29.06.2028 -
Kamran Aliev SKA Khabarovsk Aktiv 115 / 96 40% 4 29.06.2028 -
Anas Alaoui Lecco Aktiv 103 / 112 40% 1 28.06.2028 -
Danny Cashman Crawley Town Aktiv 95 / 97 40% 1 27.06.2028 -
Aleksej Golijanin Sokol Aktiv 80 / 102 40% 1 23.06.2028 -
Alen Vukaj Alcione Milano Aktiv 107 / 100 40% 1 22.06.2028 -
Ilja Safronov Rotor Aktiv 118 / 111 40% 7 18.06.2028 -
Léo Abreu Picerno Aktiv 108 / 104 40% 3 17.06.2028 -
Andrew Dallas Sambenedettese Aktiv 81 / 101 40% 5 16.06.2028 -
Alessandro Faggioli Triestina Aktiv 102 / 92 40% 2 14.06.2028 -
Alessandro Spavone Guidonia Montecelio Aktiv 103 / 102 40% 1 11.06.2028 -
Václav Sejk Slovacko Aktiv 137 / 116 40% 1 10.06.2028 -
Said Aliev Rotor Aktiv 89 / 90 40% 6 09.06.2028 -
Paolo Yrizar Chernomorets Aktiv 110 / 92 40% 1 09.06.2028 -
Josh Andrews Cheltenham Town Aktiv 87 / 103 40% 3 08.06.2028 -
Axel Gnapi Dable Fakel Aktiv 97 / 102 40% 3 08.06.2028 -
Tyler Walton Bromley Aktiv 99 / 87 40% 1 07.06.2028 -
Erik Gerbi Carpi Aktiv 112 / 98 40% 2 06.06.2028 -
Mikhail Ignatov Sochi Aktiv 124 / 115 40% 1 06.06.2028 -
Vladislav Sarveli Nizhniy Novgorod Aktiv 107 / 100 40% 2 04.06.2028 -
Yehor Hunichev Feniks Aktiv 115 / 100 40% 1 02.06.2028 -
Georg Stojanovski Spartak 1918 Aktiv 112 / 114 40% 1 31.05.2028 -
Sulayman Jallow Vis Pesaro Aktiv 104 / 108 40% 1 31.05.2028 -
Michele Emmausso Cosenza Abgelehnt 117 / 96 40% 7 30.05.2028 Ablehnen
Mattia Florio Altamura Aktiv 86 / 88 40% 1 29.05.2028 -
Ismet Sinani Bra Aktiv 90 / 97 40% 1 23.05.2028 -
Antonio Energe Crotone Aktiv 94 / 109 40% 2 20.05.2028 -
Miloš Bočić Altamura Aktiv 95 / 88 40% 1 20.05.2028 -
Vladimir Nikolov Slavia Sofia Aktiv 125 / 97 40% 3 11.05.2028 -
Lorenzo De Leo Renate Aktiv 94 / 100 40% 2 05.05.2028 -
Matteo Motti Ravenna Aktiv 98 / 94 40% 2 03.05.2028 -
Harry McKirdy Tranmere Rovers Abgelehnt 106 / 91 40% 2 02.05.2028 Mehr Infos nötig
Luca Mazzeo Picerno Aktiv 116 / 103 40% 1 26.04.2028 -
Alexandr Saplinov Volga Aktiv 101 / 99 40% 6 24.04.2028 -
Hakeeb Adelakun Doncaster Rovers Aktiv 92 / 115 40% 2 24.04.2028 -
Louis Flower Crawley Town Aktiv 77 / 93 40% 1 23.04.2028 -
François Kamano Sochi Aktiv 117 / 112 40% 4 17.04.2028 -
Simone Palombi Alcione Milano Aktiv 90 / 111 40% 1 14.04.2028 -
Bayéré Junior Loué Javor-Matis Aktiv 92 / 111 40% 3 13.04.2028 -
Enrico Baldini Bra Aktiv 108 / 101 40% 1 11.04.2028 -
Juan Pablo Ramírez Chernomorets Aktiv 87 / 93 40% 1 06.04.2028 -
Razhab Magomedov Dinamo Makhachkala Aktiv 124 / 102 40% 1 02.04.2028 -
Andrea Luongo Trento Aktiv 86 / 110 40% 1 31.03.2028 -
Ilja Rubtsov Chaika Aktiv 93 / 86 40% 1 27.03.2028 -
Vincenzo Plescia Latina Aktiv 116 / 111 40% 1 26.03.2028 -
Jacobo Alcalde SKA Khabarovsk Aktiv 81 / 86 40% 1 25.03.2028 -
Denys Ndukve Kryvbas Aktiv 90 / 93 40% 1 25.03.2028 -
Luca Fabrizi Pianese Aktiv 105 / 102 40% 1 23.03.2028 -
Daniil Sukhoruchko Metalist Aktiv 84 / 93 40% 2 20.03.2028 -
Lewis Jamieson Newport County Aktiv 114 / 108 40% 1 19.03.2028 -
Millar Matthews-Lewis Tranmere Rovers Aktiv 97 / 93 40% 1 17.03.2028 -
Igor Neves Paysandu Aktiv 107 / 105 40% 1 15.03.2028 -
Andrey Okladnikov Yenisey Aktiv 96 / 104 40% 1 11.03.2028 -
Surkhaikhan Abdullaev KAMAZ Aktiv 102 / 88 40% 1 11.03.2028 -
Jacobo Escobar Vorskla Aktiv 84 / 85 40% 1 06.03.2028 -
Stanislav Biblyk Chaika Aktiv 112 / 97 40% 1 02.03.2028 -
Aaron Drinan Swindon Town Aktiv 101 / 115 40% 1 02.03.2028 -
Jesse Akila Taraz Aktiv 112 / 110 40% 2 29.02.2028 -
Francesco Petito Dolomiti Bellunesi Aktiv 114 / 107 40% 1 29.02.2028 -
Gianluca Contini Siracusa Aktiv 101 / 105 40% 1 28.02.2028 -
Georgy Gongadze Ufa Aktiv 89 / 90 40% 1 25.02.2028 -
Migran Ageyan Ufa Aktiv 109 / 94 40% 2 23.02.2028 -
Borna Knezović Casarano Aktiv 118 / 105 40% 1 21.02.2028 -
Denis M. Kovalevich Dinamo Brest Aktiv 102 / 100 40% 1 21.02.2028 -
Jack Vale Sorrento Aktiv 103 / 102 40% 2 20.02.2028 -
Alexey Kashtanov Torpedo Moscow Aktiv 111 / 104 40% 2 15.02.2028 -
Dominik Begić Bukhara Aktiv 92 / 92 40% 1 11.02.2028 -
Idrissa Guèye Virtus Entella Aktiv 133 / 135 40% 1 10.02.2028 -
Vladislav Yakovlev Volga Aktiv 92 / 92 40% 1 10.02.2028 -
Steven Alfred Torpedo-BelAZ Aktiv 104 / 105 40% 1 07.02.2028 -
Will Davies Fleetwood Town Aktiv 82 / 100 40% 1 06.02.2028 -
Mattia Tordini Crotone Aktiv 97 / 104 40% 1 05.02.2028 -
Ezra Walian Persik Aktiv 112 / 104 40% 2 31.01.2028 -
Esteban Obregón Montevideo City Torque Aktiv 113 / 119 40% 1 31.01.2028 -
Uroš Kojić AGMK Aktiv 108 / 106 40% 2 29.01.2028 -
Juan Rocca Gimnasia y Tiro Aktiv 114 / 109 40% 1 29.01.2028 -
Anton Fase PSIM Aktiv 92 / 101 40% 1 26.01.2028 -
Luka Čumić PSM Aktiv 111 / 94 40% 2 24.01.2028 -
Dmitry Kamenschikov Chernomorets Aktiv 77 / 101 40% 1 24.01.2028 -
Sávio PSM Aktiv 102 / 98 40% 2 21.01.2028 -
Ramon Tanque Persib Aktiv 91 / 98 40% 1 09.01.2028 -
Abu Kamara Persis Aktiv 98 / 93 40% 1 07.01.2028 -
Marco Miori Alvarado Aktiv 100 / 106 40% 1 06.01.2028 -
Andritany Adhiyasa Persija Aktiv 66 / 81 55% 1 03.01.2028 -
Ciro Aktiv 97 / 98 55% 1 02.06.2027 -
Bernard Henri Doumbia Bhayangkara Presisi Aktiv 94 / 79 55% 1 01.01.2027 -
Borja Herrera Persijap Aktiv 109 / 102 55% 1 31.08.2026 -
Eduardo Barbosa PSBS Biak Aktiv 99 / 87 55% 1 17.08.2026 -
Alexis Steimbach Gimnasia La Plata Aktiv 119 / 129 40% 1 02.08.2026 -
Matías Melluso Gimnasia La Plata Aktiv 125 / 123 40% 1 02.08.2026 -